Flag for Germany Weather past 2 weeks in Rendsburg, Schleswig-Holstein, Germany

Now
45 °F

Passing clouds.


Feels Like: 38 °F
Forecast: 43 / 61 °F
Wind: 14 mph from Northwest

Location: Hohn

Current Time: Apr 21, 2015 at 9:56:07 PM

Latest Report: Apr 21, 2015 at 9:20 PM


Visibility: N/A

Pressure: 30.36 "Hg

Humidity: 81%

Dew point: 39 °F

Location of RendsburgLocation

Historic Weather in Rendsburg — Graph

°F

Rendsburg temperature yesterday

Maximum temperature yesterday: 64 °F (at 3:20 PM)
Minimum temperature yesterday: 34 °F (at 5:20 AM)
Average temperature yesterday: 50 °F

Past Weeks' High & Low Weather Summary

 TemperatureHumidityPressure
High64 °F (Apr 11, 2:20 PM)100% (Apr 7, 8:20 PM)30.57 "Hg (Apr 7, 8:20 PM)
Low27 °F (Apr 7, 2:20 AM)27% (Apr 20, 7:20 PM)29.86 "Hg (Apr 15, 1:20 PM)
Average47 °F74%30.21 "Hg
* Reported Apr 6 8:20 PM — Apr 21 8:20 PM, Rendsburg, Weather by CustomWeather, © 2015

Note: Actual official high and low records may vary slightly from our data, if they occured in-between our weather recording intervals... More about our weather records

Advertising

Rendsburg weather history for previous 24 hours

 ConditionsComfort  
Time TempWeatherWind HumidityBarometerVisibility
8:20 PM
Tue, Apr 21
46 °FPassing clouds.15 mph76%30.36 "HgN/A
7:20 PM48 °FPassing clouds.20 mph71%30.36 "HgN/A
6:20 PM50 °FPassing clouds.20 mph67%30.36 "HgN/A
5:20 PM52 °FScattered clouds.22 mph62%30.36 "HgN/A
4:20 PM54 °FPassing clouds.18 mph63%30.36 "HgN/A
3:20 PM57 °FScattered clouds.18 mph55%30.36 "HgN/A
2:20 PM57 °FScattered clouds.20 mph51%30.36 "HgN/A
1:20 PM57 °FScattered clouds.20 mph59%30.36 "HgN/A
12:20 PM57 °FScattered clouds.23 mph59%30.36 "HgN/A
11:20 AM57 °FScattered clouds.18 mph55%30.33 "HgN/A
10:20 AM55 °FScattered clouds.15 mph55%30.33 "HgN/A
9:20 AM52 °FScattered clouds.14 mph62%30.36 "HgN/A
8:20 AM48 °FScattered clouds.10 mph71%30.36 "HgN/A
7:20 AM41 °FScattered clouds.8 mph87%30.36 "HgN/A
6:20 AM39 °FPassing clouds.9 mph87%30.33 "HgN/A
5:20 AM37 °FPassing clouds.7 mph93%30.33 "HgN/A
4:20 AM41 °FQuite cool.8 mph87%30.36 "Hg6 mi
3:20 AM41 °FQuite cool.8 mph87%30.36 "HgN/A
2:20 AM43 °FPassing clouds.8 mph81%30.36 "HgN/A
1:20 AM43 °FPassing clouds.8 mph87%30.36 "HgN/A
12:20 AM45 °FPassing clouds.6 mph81%30.36 "HgN/A
11:20 PM
Mon, Apr 20
48 °FPassing clouds.8 mph71%30.36 "HgN/A
10:20 PM48 °FPassing clouds.5 mph58%30.36 "HgN/A
9:20 PM52 °FPartly sunny.6 mph44%30.36 "HgN/A
Weather by CustomWeather, © 2015

See weather overviewHow to use our weather pages